Starlink 32267

operational
NORAD ID: 60363 Int'l Des: 2024-138 Owner: SPXS Country: US Constellation: starlink
LEOCIRCULAR

About Starlink 32267

Description loading...

Live Position

Loading 3D Globe...

Upcoming Passes

Altitude History

Altitude vs Time

uPlot chart will show altitude changes over time

Two-Line Element Set

1 60363U 24138J 25307.03719249 -.00000468 00000-0 -36807-5 0 9997
2 60363 53.1591 178.0953 0001312 91.7932 268.3219 15.30195998 71239
Epoch: Nov 3, 2025 • Age: 34 hours

Current Status

Altitude 494.4 km
Velocity 7.62 km/s
Sub-Earth Point -52.71°S, 115.75°W
Launch Date Aug 4, 2024
Age 1.2 years
Type internet

Technical Details

Classification Payload
Mass 730.00 kg
Dry Mass 700.00 kg
Total Mass 730.00 kg
Length 0.30 m
Diameter 4.10 m
Span 29.00 m
Shape Box + pan
Manufacturer SPXS
Bus Type Starlink V2M
Phase Status In Orbit
Owner/State SPXS/US

Large Constellations

Loading constellations...